Simultaneous Nadir Overpasses (SNOs) Predictions

Prediction of SNOs between AQUA and NPP Satellite Orbit:

Table of predicted SNOs for the next 14.0 days since TLE Epoch: 5/15/2020
Index Date (AQUA) Time (AQUA) Lat,Lon (AQUA) SZA (AQUA ) Date (NPP) Time (NPP) Lat,Lon (NPP) SZA (NPP ) Distance(km) Time Diff (sec)
1 05/16/2020 14:05:31 -75.30, 25.69 101.05 05/16/2020 14:04:36 -75.29, 25.65 100.99 1.37 55
2 05/16/2020 14:54:33 76.44,-163.20 77.62 05/16/2020 14:54:55 76.44,-163.21 77.60 0.57 22
3 05/19/2020 06:21:51 -75.75, 142.87 102.14 05/19/2020 06:21:21 -75.75, 142.85 102.11 0.51 30
4 05/19/2020 07:10:54 76.83, -45.98 76.59 05/19/2020 07:11:41 76.83, -45.94 76.54 1.13 47
5 05/21/2020 22:38:11 -76.15,-100.04 103.13 05/21/2020 22:38:06 -76.15,-100.01 103.13 0.77 5
6 05/21/2020 23:27:22 76.83, 69.90 76.07 05/21/2020 23:28:35 76.82, 69.79 76.03 2.89 73
7 05/24/2020 14:05:30 75.26,-154.40 77.43 05/24/2020 14:04:34 75.25,-154.45 77.49 1.52 56
8 05/24/2020 14:54:31 -76.59, 17.28 104.12 05/24/2020 14:54:51 -76.59, 17.36 104.16 2.42 20
9 05/27/2020 06:21:48 75.80, -36.98 76.38 05/27/2020 06:21:17 75.80, -36.96 76.40 0.66 31
10 05/27/2020 07:10:59 -76.63, 133.31 104.61 05/27/2020 07:11:45 -76.63, 133.26 104.64 1.53 46




NCC Satellite Simultaneous Nadir Overpasses (SNOs) Prediction Service
